Find Starlink 33708

NORAD ID: 63405 Int'l Des: 2025-065 Owner: SPXS Country: US Constellation: starlink operational
LEOCIRCULAR

リアルタイム位置

3D地球を読み込み中...

Starlink 33708について

説明を読み込み中...

次回通過

Passes for default location (London). Set your location on the main map for personalized predictions.

高度履歴

Loading altitude history...

軌道要素

1 63405U 25065G 26123.50032174 .00025609 00000-0 93637-3 0 9995
2 63405 43.0001 157.4373 0001736 267.9275 92.1378 15.27598497 61221
Epoch: May 3, 2026 • Age: 9 hours

現在のステータス

高度 482.3 km
速度 7.63 km/s
衛星直下点 8.32°N, 19.75°W
打ち上げ日 Mar 31, 2025
運用期間 1 years
タイプ internet

技術仕様

分類 Payload
質量 575.00 kg
乾燥質量 530.00 kg
総質量 575.00 kg
長さ 0.30 m
直径 4.10 m
スパン 29.00 m
形状 Box + pan
製造者 SPXS
バスタイプ Starlink V2MO
フェーズステータス In Orbit
所有者/国 SPXS/US

Most Searched